Torna al catalogo

STARLINK-4416

AttivoComunicazioniSSO
NORAD 53212·PAYLOAD·🇺🇸 United States

Lanciato Jul 22, 2022 da Vandenberg Space Force Base

Loading…

Prossimi Passaggi (prossime 24 ore)

TLE

AggiornatoSource: CelesTrak SupGP

Epoca: Sep 15, 2026, 01:52 UTC

1 53212C 22084Z   26258.07826389  .00056265  00000+0  17464-2 0  2580
2 53212  97.2831 313.9430 0001674  73.7390 280.8364 15.33413420    13

Traccia STARLINK-4416 in tempo reale con AllMySat

Download on the App Store